Location: Ikejouine
(32.5142°N, 5.4699°W)
Time: 19:21:10
(UTC+00:00)

Cosmos 1300 - Pass Details

Date: 09 April 2020
Orbit: 511 x 515 km, 82.5° (Epoch: 28 May)

Event Time Altitude Azimuth Distance (km) Brightness Sun altitude
Exits shadow 20:17:44 53° 105° (ESE) 638 2.7 -19.0°
Maximum altitude 20:17:55 53° 94° (E) 634 2.7 -19.0°
Drops below altitude 10° 20:21:38 10° 17° (NNE) 1,743 5.4 -19.7°
Sets 20:23:48 0° 12° (NNE) 2,634 6.4 -20.2°
